E-ST@R-II

Last updated on Sun May 05 2024 00:02:58 GMT+0000 (Coordinated Universal Time)

1 41459U 16025D 24125.22045691 .05080707 28349-5 14279-2 0 9993 2 41459 98.1041 13.4564 0002038 2.8998 357.2304 16.27808972442756
UTC large
Height (km)
Speed (km/s)
/
Latitude / Longitude
Inclination (degrees)
Orbital Period (minutes)
Azimuth
Elevation
Range (km)
Doppler Factor

Next 0 passes for location: London (51.5072 / 0.1276)

Sorry there are no passes over London.